Terminal Aerodrome Forecast
Issued by NWS

Home | Current Version | Previous Version | Text Only | Print | Product List | Glossary On
Versions: 1 2 3 4 5 6 7 8 9 10 11 12 13 14 15 16 17 18 19 20 21 22 23 24 25 26 27 28 29 30
000
FTAK31 PANC 260535
TAFACD
TAF
PACD 260535Z 2606/2706 23010KT P6SM BKN045
     FM260900 18018G26KT P6SM -RA SCT025 BKN035
     FM261200 23020G28KT P6SM -RA OVC025
     FM261600 28018G30KT 4SM -SHRA SCT012 OVC020
     FM270300 32015KT P6SM SCT030 OVC050=

USA.gov is the U.S. government's official web portal to all federal, state and local government web resources and services.